GW6960 Weather Reports


time (UTC)temp
F
wind
direction
speed
knots
gust
knots
rain 1hr
in
rain 24hr
in
rain mn
in
humidity
%
barometer
mb
20260507200910 69 191 7.0 8.7 0.00 0.00 0.00 93
20260507200307 69 157 4.3 7.8 0.00 0.00 0.00 93
20260507200018 69 159 5.2 7.8 0.00 0.00 0.00 93
20260507195703 69 199 5.2 7.0 0.00 0.00 0.00 93
20260507195403 68 201 8.7 9.6 0.00 0.00 0.00 93
20260507195111 68 176 6.1 8.7 0.00 0.00 0.00 93
20260507194812 68 161 6.1 8.7 0.00 0.00 0.00 94
20260507194514 68 169 7.8 9.6 0.00 0.00 0.00 93
20260507194202 68 192 5.2 9.6 0.00 0.00 0.00 94
20260507193910 68 157 7.0 9.6 0.00 0.00 0.00 94
20260507193608 68 229 8.7 12.2 0.00 0.00 0.00 93
20260507193316 68 200 7.0 10.4 0.00 0.00 0.00 93
20260507193005 69 199 8.7 9.6 0.00 0.00 0.00 93
20260507192712 69 154 7.0 9.6 0.00 0.00 0.00 93
20260507192405 69 207 7.8 9.6 0.00 0.00 0.00 93
20260507192105 69 210 7.8 8.7 0.00 0.00 0.00 93
20260507191858 69 215 7.0 9.6 0.00 0.00 0.00 93
20260507191807 69 158 7.0 8.7 0.00 0.00 0.00 93
20260507191730 69 168 7.0 8.7 0.00 0.00 0.00 93
20260507191613 69 205 4.3 7.8 0.00 0.00 0.00 93
20260507191513 69 196 5.2 9.6 0.00 0.00 0.00 93
20260507191338 69 212 7.8 10.4 0.00 0.00 0.00 93
20260507191204 70 196 7.0 10.4 0.00 0.00 0.00 93
20260507190914 70 222 3.5 5.2 0.00 0.00 0.00 93
20260507190824 70 197 2.6 3.5 0.00 0.00 0.00 93
20260507190656 70 155 2.6 5.2 0.00 0.00 0.00 92
20260507190605 70 135 4.3 6.1 0.00 0.00 0.00 92
20260507190319 70 180 3.5 6.1 0.00 0.00 0.00 92
20260507185941 70 174 3.5 7.8 0.00 0.00 0.00 92
20260507185843 70 144 5.2 7.8 0.00 0.00 0.00 92
20260507185830 70 178 6.1 7.8 0.00 0.00 0.00 92
20260507185732 70 182 7.0 8.7 0.00 0.00 0.00 92
20260507185705 70 146 7.0 8.7 0.00 0.00 0.00 92
20260507185415 70 213 9.6 10.4 0.00 0.00 0.00 91
20260507185403 70 180 6.1 8.7 0.00 0.00 0.00 91
20260507185234 70 202 7.0 10.4 0.00 0.00 0.00 91
20260507185111 70 221 8.7 9.6 0.00 0.00 0.00 91
20260507185001 70 183 6.1 9.6 0.00 0.00 0.00 91
20260507184837 70 225 7.0 9.6 0.00 0.00 0.00 91
20260507184509 70 146 3.5 10.4 0.00 0.00 0.00 90
20260507184434 70 157 6.1 10.4 0.00 0.00 0.00 90
20260507183909 70 151 7.8 9.6 0.00 0.00 0.00 90
20260507183604 70 122 5.2 7.8 0.00 0.00 0.00 90
20260507183406 70 141 5.2 10.4 0.00 0.00 0.00 90
20260507183309 70 176 7.8 13.0 0.00 0.00 0.00 90
20260507183007 71 176 6.1 13.0 0.00 0.00 0.00 90
20260507182719 71 183 8.7 10.4 0.00 0.00 0.00 89
20260507182405 71 247 6.1 9.6 0.00 0.00 0.00 90
20260507182116 71 93 6.1 12.2 0.00 0.00 0.00 89
20260507181803 71 165 12.2 14.8 0.00 0.00 0.00 88
20260507181507 72 200 8.7 10.4 0.00 0.00 0.00 88
20260507181205 72 159 8.7 13.0 0.00 0.00 0.00 87
20260507180913 72 161 7.8 12.2 0.00 0.00 0.00 87
20260507180634 73 203 8.7 14.8 0.00 0.00 0.00 87
20260507180005 73 191 11.3 14.8 0.00 0.00 0.00 86
20260507175711 73 137 6.1 7.8 0.00 0.00 0.00 86
20260507175402 73 184 6.1 10.4 0.00 0.00 0.00 86
20260507175113 73 222 8.7 12.2 0.00 0.00 0.00 85
20260507174812 73 154 8.7 10.4 0.00 0.00 0.00 84
20260507174516 73 147 7.8 9.6 0.00 0.00 0.00 85
20260507174207 72 122 5.2 9.6 0.00 0.00 0.00 87
20260507173909 72 156 7.0 13.0 0.00 0.00 0.00 89
20260507173611 72 167 7.0 13.0 0.00 0.00 0.00 89
20260507173311 72 154 7.0 10.4 0.00 0.00 0.00 88
20260507173005 72 188 8.7 13.0 0.00 0.00 0.00 87
20260507172953 72 187 5.2 13.0 0.00 0.00 0.00 87
20260507172715 72 191 10.4 13.0 0.00 0.00 0.00 87
20260507172111 73 200 6.1 10.4 0.00 0.00 0.00 86
20260507171806 73 219 8.7 9.6 0.00 0.00 0.00 86
20260507171508 72 205 5.2 7.8 0.00 0.00 0.00 86
20260507171216 73 208 7.0 10.4 0.00 0.00 0.00 86
20260507170906 73 158 5.2 7.8 0.00 0.00 0.00 86
20260507170620 73 133 8.7 10.4 0.00 0.00 0.00 86
20260507170304 73 205 6.1 12.2 0.00 0.00 0.00 86
20260507170007 74 167 5.2 8.7 0.00 0.00 0.00 85
20260507165724 73 221 7.0 9.6 0.00 0.00 0.00 85
20260507165410 73 174 6.1 7.8 0.00 0.00 0.00 86
20260507165107 72 142 5.2 7.8 0.00 0.00 0.00 86
20260507164803 72 168 2.6 5.2 0.00 0.00 0.00 87
20260507164202 72 167 4.3 7.8 0.00 0.00 0.00 86
20260507163914 72 254 6.1 7.8 0.00 0.00 0.00 86
20260507163606 72 195 1.7 2.6 0.00 0.00 0.00 86
20260507163308 72 195 3.5 5.2 0.00 0.00 0.00 87
20260507163009 71 203 3.5 7.8 0.00 0.00 0.00 87
20260507162707 72 196 6.1 7.8 0.00 0.00 0.00 87
20260507162411 72 177 3.5 6.1 0.00 0.00 0.00 87
20260507161810 72 172 4.3 7.0 0.00 0.00 0.00 87
20260507161511 71 159 3.5 7.8 0.00 0.00 0.00 88
20260507161212 72 210 6.1 7.8 0.00 0.00 0.00 87
20260507160910 72 206 5.2 8.7 0.00 0.00 0.00 87
20260507160008 72 209 3.5 6.1 0.00 0.00 0.00 85
20260507155405 71 180 7.8 9.6 0.00 0.00 0.00 86
20260507155108 72 184 6.1 8.7 0.00 0.00 0.00 86
20260507154812 73 195 8.7 12.2 0.00 0.00 0.00 85
20260507154505 72 222 6.1 7.8 0.00 0.00 0.00 86
20260507154207 72 202 7.0 8.7 0.00 0.00 0.00 86
20260507153911 72 145 1.7 7.8 0.00 0.00 0.00 86
20260507153604 72 186 4.3 7.8 0.00 0.00 0.00 86
20260507153308 72 163 6.1 9.6 0.00 0.00 0.00 85
20260507153003 72 195 2.6 7.8 0.00 0.00 0.00 86
20260507152708 73 165 5.2 8.7 0.00 0.00 0.00 86
20260507152411 71 191 5.2 7.0 0.00 0.00 0.00 86
20260507152105 72 198 4.3 7.8 0.00 0.00 0.00 86
20260507151812 72 191 6.1 7.0 0.00 0.00 0.00 86
20260507151511 72 165 5.2 9.6 0.00 0.00 0.00 85
20260507151204 72 190 3.5 8.7 0.00 0.00 0.00 84
20260507150909 72 177 7.0 7.8 0.00 0.00 0.00 85
20260507150609 72 203 5.2 8.7 0.00 0.00 0.00 85
20260507150309 72 201 6.1 7.0 0.00 0.00 0.00 84
20260507150002 72 184 3.5 8.7 0.00 0.00 0.00 83
20260507145402 71 212 2.6 5.2 0.00 0.00 0.00 84
20260507145107 72 176 3.5 7.0 0.00 0.00 0.00 84
20260507144811 73 226 6.1 7.8 0.00 0.00 0.00 83
20260507144505 74 167 2.6 7.0 0.00 0.00 0.00 83
20260507144207 72 222 4.3 7.0 0.00 0.00 0.00 82
20260507143912 73 199 5.2 8.7 0.00 0.00 0.00 82
20260507143605 73 187 3.5 7.8 0.00 0.00 0.00 81
20260507143309 73 237 3.5 3.5 0.00 0.00 0.00 81
20260507143010 74 197 3.5 6.1 0.00 0.00 0.00 79
20260507142707 74 171 1.7 6.1 0.00 0.00 0.00 80
20260507142411 74 147 3.5 6.1 0.00 0.00 0.00 80
20260507142103 73 59 2.6 5.2 0.00 0.00 0.00 81
20260507141812 73 190 5.2 7.0 0.00 0.00 0.00 80
20260507141506 73 227 2.6 6.1 0.00 0.00 0.00 80
20260507141209 74 138 5.2 7.8 0.00 0.00 0.00 79
20260507140910 73 159 4.3 5.2 0.00 0.00 0.00 81
20260507140605 73 217 3.5 6.1 0.00 0.00 0.00 82
20260507140310 73 168 1.7 5.2 0.00 0.00 0.00 83
20260507140013 72 88 1.7 8.7 0.00 0.00 0.00 84
20260507140001 71 240 4.3 5.2 0.00 0.00 0.00 84
20260507135403 72 168 1.7 2.6 0.00 0.00 0.00 85
20260507135107 72 149 2.6 6.1 0.00 0.00 0.00 84
20260507134812 72 135 3.5 6.1 0.00 0.00 0.00 83
20260507134505 72 30 3.5 5.2 0.00 0.00 0.00 85
20260507134208 70 169 0.9 6.1 0.00 0.00 0.00 85
20260507133915 71 142 5.2 6.1 0.00 0.00 0.00 85
20260507133607 70 174 1.7 3.5 0.00 0.00 0.00 85
20260507133313 70 179 2.6 6.1 0.00 0.00 0.00 87
20260507133006 70 114 4.3 7.8 0.00 0.00 0.00 87
20260507132710 70 200 3.5 8.7 0.00 0.00 0.00 86
20260507132404 70 218 1.7 2.6 0.00 0.00 0.00 87
20260507132109 70 216 6.1 9.6 0.00 0.00 0.00 86
20260507131813 70 206 1.7 2.6 0.00 0.00 0.00 87
20260507131507 69 193 9.6 12.2 0.00 0.00 0.00 87
20260507131212 69 230 2.6 8.7 0.00 0.00 0.00 88
20260507130905 69 158 7.0 7.8 0.00 0.00 0.00 88
20260507130610 69 155 8.7 9.6 0.00 0.00 0.00 88
20260507130302 69 134 4.3 6.1 0.00 0.00 0.00 88
20260507130008 69 143 3.5 8.7 0.00 0.00 0.00 88
20260507125409 69 159 3.5 9.6 0.00 0.00 0.00 89
20260507125105 68 144 5.2 7.8 0.00 0.00 0.00 89
20260507124808 69 169 5.2 9.6 0.00 0.00 0.00 89
20260507124502 70 130 7.0 8.7 0.00 0.00 0.00 88
20260507124207 69 152 5.2 6.1 0.00 0.00 0.00 89
20260507123859 70 135 8.7 9.6 0.00 0.00 0.00 88
20260507123602 70 143 7.0 9.6 0.00 0.00 0.00 88
20260507123304 70 220 5.2 7.8 0.00 0.00 0.00 88
20260507122958 69 138 3.5 12.2 0.00 0.00 0.00 88
20260507122705 70 150 6.1 8.7 0.00 0.00 0.00 88
20260507122407 70 116 5.2 7.0 0.00 0.00 0.00 88
20260507122102 69 149 7.0 8.7 0.00 0.00 0.00 89
20260507121807 69 134 3.5 7.8 0.00 0.00 0.00 90
20260507121500 68 127 3.5 13.9 0.00 0.00 0.00 91
20260507121204 69 192 7.8 12.2 0.00 0.00 0.00 90
20260507120905 68 166 6.1 10.4 0.00 0.00 0.00 90
20260507120600 68 210 6.1 13.0 0.00 0.00 0.00 91
20260507120304 68 169 7.0 12.2 0.00 0.00 0.00 91
20260507120005 68 152 8.7 10.4 0.00 0.00 0.00 91
20260507115358 68 119 10.4 12.2 0.00 0.00 0.00 92
20260507115102 68 173 7.0 12.2 0.00 0.00 0.00 93
20260507114807 68 153 5.2 12.2 0.00 0.00 0.00 93
20260507114501 67 191 5.2 13.0 0.00 0.00 0.00 93
20260507114206 68 244 7.0 7.8 0.00 0.00 0.00 93
20260507113858 68 188 6.1 13.0 0.00 0.00 0.00 93
20260507113603 67 190 5.2 10.4 0.00 0.00 0.00 93
20260507113308 67 199 8.7 12.2 0.00 0.00 0.00 93
20260507113000 67 144 6.1 12.2 0.00 0.00 0.00 94
20260507112706 67 188 5.2 12.2 0.00 0.00 0.00 94
20260507112400 67 154 5.2 7.8 0.00 0.00 0.00 94
20260507112104 67 217 7.0 9.6 0.00 0.00 0.00 94
20260507111758 67 233 6.1 9.6 0.00 0.00 0.00 94
20260507111504 67 172 5.2 9.6 0.00 0.00 0.00 94
20260507111207 67 173 4.3 8.7 0.00 0.00 0.00 94
20260507110900 67 161 4.3 7.0 0.00 0.00 0.00 94
20260507110605 67 80 7.0 8.7 0.00 0.00 0.00 94
20260507110308 67 173 1.7 7.8 0.00 0.00 0.00 94
20260507110002 67 165 4.3 7.8 0.00 0.00 0.00 94
20260507105402 67 102 1.7 7.8 0.00 0.00 0.00 94
20260507105106 67 141 3.5 7.0 0.00 0.00 0.00 94
20260507104800 67 177 4.3 8.7 0.00 0.00 0.00 94
20260507104504 67 114 5.2 7.8 0.00 0.00 0.00 94
20260507104206 67 160 6.1 7.8 0.00 0.00 0.00 94
20260507103908 67 151 7.8 9.6 0.00 0.00 0.00 94
20260507103607 67 114 4.3 12.2 0.00 0.00 0.00 94
20260507103308 67 178 12.2 14.8 0.00 0.00 0.00 94
20260507103000 67 156 7.0 12.2 0.00 0.00 0.00 94
20260507102708 67 211 5.2 9.6 0.00 0.00 0.00 94
20260507102408 67 158 8.7 14.8 0.00 0.00 0.00 94
20260507102102 67 169 6.1 13.9 0.00 0.00 0.00 94
20260507101806 67 165 7.0 9.6 0.00 0.00 0.00 94
20260507101500 67 156 7.0 15.6 0.00 0.00 0.00 94
20260507101205 67 120 7.0 15.6 0.00 0.00 0.00 94
20260507100900 67 149 12.2 14.8 0.00 0.00 0.00 94
20260507100602 67 152 10.4 14.8 0.00 0.00 0.00 94
20260507100307 67 167 12.2 13.9 0.00 0.00 0.00 94
20260507100010 67 155 9.6 13.9 0.00 0.00 0.00 94
20260507095404 67 217 5.2 9.6 0.00 0.00 0.00 94
20260507095109 67 170 6.1 9.6 0.00 0.00 0.00 94
20260507094801 67 126 6.1 8.7 0.00 0.00 0.00 94
20260507094506 67 159 7.0 13.0 0.00 0.00 0.00 94
20260507094159 67 134 7.0 9.6 0.00 0.00 0.00 94
20260507093905 67 155 7.8 12.2 0.00 0.00 0.00 94
20260507093559 67 199 8.7 10.4 0.00 0.00 0.00 94
20260507093302 67 133 7.8 13.9 0.00 0.00 0.00 94
20260507093005 67 184 7.0 12.2 0.00 0.00 0.00 94
20260507092704 67 160 7.8 8.7 0.00 0.00 0.00 94
20260507092405 67 146 8.7 12.2 0.00 0.00 0.00 94
20260507092109 67 141 3.5 8.7 0.00 0.00 0.00 94
20260507091802 67 149 6.1 9.6 0.00 0.00 0.00 94
20260507091505 67 148 8.7 9.6 0.00 0.00 0.00 94
20260507091210 67 163 6.1 7.8 0.00 0.00 0.00 94
20260507090904 67 117 6.1 8.7 0.00 0.00 0.00 94
20260507090606 67 181 4.3 7.8 0.00 0.00 0.00 94
20260507090259 67 137 4.3 7.8 0.00 0.00 0.00 94
20260507090003 67 148 8.7 9.6 0.00 0.00 0.00 94
20260507085403 67 121 4.3 6.1 0.00 0.00 0.00 94
20260507085108 67 194 3.5 7.0 0.00 0.00 0.00 94
20260507084809 67 197 4.3 7.8 0.00 0.00 0.00 94
20260507084506 67 128 4.3 9.6 0.00 0.00 0.00 94
20260507084208 67 161 2.6 7.0 0.00 0.00 0.00 94
20260507083902 67 156 5.2 7.0 0.00 0.00 0.00 94
20260507083608 67 214 3.5 5.2 0.00 0.00 0.00 94
20260507083301 67 200 3.5 7.0 0.00 0.00 0.00 94
20260507083003 67 116 3.5 7.0 0.00 0.00 0.00 94
20260507082706 67 169 6.1 7.8 0.00 0.00 0.00 94
20260507082400 67 147 4.3 7.0 0.00 0.00 0.00 94
20260507082109 67 156 5.2 7.0 0.00 0.00 0.00 94
20260507081810 67 175 5.2 7.8 0.00 0.00 0.00 94
20260507081504 67 157 2.6 7.0 0.00 0.00 0.00 94
20260507081201 67 151 5.2 8.7 0.00 0.00 0.00 94
20260507080902 67 160 7.0 8.7 0.00 0.00 0.00 94
20260507080606 67 164 5.2 8.7 0.00 0.00 0.00 94
20260507080300 67 127 5.2 7.8 0.00 0.00 0.00 94
20260507080004 67 169 7.0 7.8 0.00 0.00 0.00 94
20260507075400 67 145 7.0 7.0 0.00 0.00 0.00 94
20260507075105 67 156 5.2 8.7 0.00 0.00 0.00 94
20260507074809 67 143 5.2 8.7 0.00 0.00 0.00 94
20260507074502 67 119 5.2 7.0 0.00 0.00 0.00 94
20260507074207 67 163 3.5 7.0 0.00 0.00 0.00 94
20260507073901 67 146 4.3 7.0 0.00 0.00 0.00 94
20260507073604 67 114 3.5 7.0 0.00 0.00 0.00 93
20260507073308 67 219 3.5 7.0 0.00 0.00 0.00 93
20260507073001 67 139 2.6 3.5 0.00 0.00 0.00 93
20260507072706 67 120 1.7 7.0 0.00 0.00 0.00 93
20260507072401 67 195 3.5 9.6 0.00 0.00 0.00 93
20260507072107 67 231 7.8 9.6 0.00 0.00 0.00 93
20260507071809 67 161 2.6 6.1 0.00 0.00 0.00 93
20260507071508 67 182 7.0 8.7 0.00 0.00 0.00 93
20260507071201 67 168 8.7 9.6 0.00 0.00 0.00 93
20260507070910 67 207 6.1 10.4 0.00 0.00 0.00 93
20260507070604 67 169 3.5 9.6 0.00 0.00 0.00 93
20260507070306 67 154 5.2 8.7 0.00 0.00 0.00 93
20260507070000 67 169 5.2 9.6 0.00 0.00 0.00 92
20260507065405 67 162 7.8 8.7 0.00 0.00 0.00 92
20260507065105 67 152 6.1 9.6 0.00 0.00 0.00 92
20260507064809 67 165 6.1 10.4 0.00 0.00 0.00 92
20260507064502 67 154 7.0 8.7 0.00 0.00 0.00 92
20260507064211 67 170 6.1 10.4 0.00 0.00 0.00 92
20260507063904 67 166 8.7 10.4 0.00 0.00 0.00 92
20260507063609 67 157 7.0 9.6 0.00 0.00 0.00 92
20260507063304 67 150 5.2 7.8 0.00 0.00 0.00 92
20260507063009 67 153 5.2 13.0 0.00 0.00 0.00 92
20260507062702 67 202 8.7 9.6 0.00 0.00 0.00 92
20260507062406 67 162 5.2 8.7 0.00 0.00 0.00 93
20260507062111 67 196 7.0 9.6 0.00 0.00 0.00 93
20260507061800 67 191 8.7 10.4 0.00 0.00 0.00 93
20260507061503 67 178 7.8 9.6 0.00 0.00 0.00 93
20260507061206 67 151 7.0 10.4 0.00 0.00 0.00 93
20260507060911 67 150 7.8 9.6 0.00 0.00 0.00 93
20260507060605 67 129 4.3 10.4 0.00 0.00 0.00 93
20260507060303 67 170 9.6 13.0 0.00 0.00 0.00 93
20260507060003 67 145 7.8 8.7 0.00 0.00 0.00 93
20260507055408 67 139 7.0 7.8 0.00 0.00 0.00 93
20260507055102 67 175 7.0 9.6 0.00 0.00 0.00 92
20260507054805 67 160 7.0 7.8 0.00 0.00 0.00 92
20260507054510 67 162 7.8 8.7 0.00 0.00 0.00 92
20260507054203 67 150 7.0 8.7 0.00 0.00 0.00 91
20260507053908 67 161 7.0 8.7 0.00 0.00 0.00 91
20260507053602 67 139 5.2 7.8 0.00 0.00 0.00 90
20260507053307 67 131 6.1 7.8 0.00 0.00 0.00 90
20260507053011 67 180 5.2 7.8 0.00 0.00 0.00 90
20260507052704 67 144 5.2 7.0 0.00 0.00 0.00 89
20260507052409 67 167 4.3 6.1 0.00 0.00 0.00 89
20260507052109 67 200 6.1 7.8 0.00 0.00 0.00 89
20260507051809 67 165 5.2 6.1 0.00 0.00 0.00 89
20260507051510 67 186 5.2 7.0 0.00 0.00 0.00 88
20260507051205 67 146 5.2 7.0 0.00 0.00 0.00 88
20260507050909 67 192 5.2 6.1 0.00 0.00 0.00 88
20260507050602 67 173 5.2 6.1 0.00 0.00 0.00 87
20260507050308 68 223 4.3 6.1 0.00 0.00 0.00 86
20260507050013 68 188 2.6 5.2 0.00 0.00 0.00 86
20260507050001 68 166 3.5 5.2 0.00 0.00 0.00 85
20260507045402 68 165 6.1 7.0 0.00 0.00 0.00 85
20260507045107 68 181 6.1 7.0 0.00 0.00 0.00 85
20260507044808 68 153 4.3 6.1 0.00 0.00 0.00 85
20260507044502 68 164 4.3 6.1 0.00 0.00 0.00 85
20260507044207 68 166 4.3 7.0 0.00 0.00 0.00 85
20260507043912 68 170 4.3 6.1 0.00 0.00 0.00 84
20260507043603 67 165 4.3 6.1 0.00 0.00 0.00 85
20260507043308 67 189 2.6 3.5 0.00 0.00 0.00 85
20260507043003 68 196 3.5 3.5 0.00 0.00 0.00 85
20260507042713 67 152 2.6 3.5 0.00 0.00 0.00 86
20260507042407 67 177 2.6 5.2 0.00 0.00 0.00 86
20260507042110 67 209 2.6 5.2 0.00 0.00 0.00 87
20260507041809 67 139 3.5 3.5 0.00 0.00 0.00 87
20260507041512 67 170 4.3 5.2 0.00 0.00 0.00 87
20260507041204 67 186 3.5 3.5 0.00 0.00 0.00 87
20260507040909 67 160 4.3 5.2 0.00 0.00 0.00 88
20260507040612 67 151 3.5 5.2 0.00 0.00 0.00 88
20260507040306 67 155 3.5 3.5 0.00 0.00 0.00 88
20260507040009 67 168 3.5 3.5 0.00 0.00 0.00 88
20260507035407 67 168 4.3 6.1 0.00 0.00 0.00 89
20260507035112 67 156 4.3 5.2 0.00 0.00 0.00 90
20260507034807 67 169 3.5 5.2 0.00 0.00 0.00 90
20260507034512 67 166 5.2 6.1 0.00 0.00 0.00 90
20260507034206 67 171 4.3 6.1 0.00 0.00 0.00 91
20260507033908 67 160 4.3 7.0 0.00 0.00 0.00 91
20260507033611 67 144 5.2 7.0 0.00 0.00 0.00 91
20260507033313 67 157 5.2 6.1 0.00 0.00 0.00 91
20260507033006 67 176 3.5 5.2 0.00 0.00 0.00 91
20260507032711 67 170 2.6 5.2 0.00 0.00 0.00 91
20260507032405 67 136 2.6 5.2 0.00 0.00 0.00 91
20260507032109 67 182 5.2 7.0 0.00 0.00 0.00 91
20260507031813 67 123 4.3 6.1 0.00 0.00 0.00 91
20260507031507 67 87 3.5 5.2 0.00 0.00 0.00 91
20260507031212 67 169 4.3 6.1 0.00 0.00 0.00 91
20260507030906 67 180 4.3 6.1 0.00 0.00 0.00 91
20260507030609 67 154 5.2 6.1 0.00 0.00 0.00 92
20260507030303 67 166 3.5 7.0 0.00 0.00 0.00 92
20260507030007 66 192 5.2 7.0 0.00 0.00 0.00 93
20260507025408 66 175 4.3 6.1 0.00 0.00 0.00 93
20260507025111 66 178 4.3 5.2 0.00 0.00 0.00 93
20260507024803 66 127 3.5 5.2 0.00 0.00 0.00 93
20260507024508 66 150 5.2 7.0 0.00 0.00 0.00 93
20260507024212 67 154 3.5 5.2 0.00 0.00 0.00 93
20260507023906 67 169 3.5 5.2 0.00 0.00 0.00 93
20260507023612 67 147 2.6 5.2 0.00 0.00 0.00 93
20260507023306 67 154 2.6 2.6 0.00 0.00 0.00 93
20260507023010 67 152 3.5 5.2 0.00 0.00 0.00 93
20260507022705 67 139 3.5 5.2 0.00 0.00 0.00 93
20260507022410 67 138 2.6 3.5 0.00 0.00 0.00 92
20260507022113 67 169 3.5 6.1 0.00 0.00 0.00 92
20260507021807 67 114 3.5 5.2 0.00 0.00 0.00 92
20260507021512 67 165 2.6 5.2 0.00 0.00 0.00 92
20260507021207 67 184 4.3 6.1 0.00 0.00 0.00 91
20260507020912 67 157 4.3 5.2 0.00 0.00 0.00 91
20260507020604 67 196 3.5 3.5 0.00 0.00 0.00 90
20260507020309 68 159 3.5 6.1 0.00 0.00 0.00 90
20260507020014 68 235 4.3 6.1 0.00 0.00 0.00 90
20260507020002 68 207 6.1 7.8 0.00 0.00 0.00 89
20260507015412 67 187 7.0 7.8 0.00 0.00 0.00 89
20260507015104 67 169 6.1 7.8 0.00 0.00 0.00 88
20260507014808 67 201 4.3 8.7 0.00 0.00 0.00 88
20260507014513 67 165 4.3 7.8 0.00 0.00 0.00 88
20260507014208 67 206 7.0 7.8 0.00 0.00 0.00 88
20260507013911 67 201 5.2 7.0 0.00 0.00 0.00 88
20260507013612 67 168 5.2 8.7 0.00 0.00 0.00 88
20260507013306 67 175 5.2 7.0 0.00 0.00 0.00 89
20260507013010 67 144 5.2 6.1 0.00 0.00 0.00 89
20260507012713 67 196 7.0 8.7 0.00 0.00 0.00 90
20260507012406 67 163 5.2 7.8 0.00 0.00 0.00 90
20260507012112 67 167 5.2 8.7 0.00 0.00 0.00 90
20260507011806 68 174 5.2 9.6 0.00 0.00 0.00 90
20260507011510 67 205 5.2 10.4 0.00 0.00 0.00 90
20260507011213 67 173 5.2 7.8 0.00 0.00 0.00 90
20260507010905 67 196 6.1 7.8 0.00 0.00 0.00 91
20260507010610 67 182 3.5 6.1 0.00 0.00 0.00 91
20260507010303 67 222 6.1 7.0 0.00 0.00 0.00 92
20260507010004 67 186 4.3 7.8 0.00 0.00 0.00 92
20260507005413 67 158 3.5 3.5 0.00 0.00 0.00 92
20260507005106 67 206 6.1 7.0 0.00 0.00 0.00 92
20260507004810 67 182 2.6 7.0 0.00 0.00 0.00 92
20260507004503 67 190 5.2 7.8 0.00 0.00 0.00 92
20260507004208 67 232 7.0 7.8 0.00 0.00 0.00 93
20260507003913 67 154 6.1 8.7 0.00 0.00 0.00 93
20260507003605 68 192 6.1 7.8 0.00 0.00 0.00 93
20260507003311 68 160 4.3 7.0 0.00 0.00 0.00 93
20260507003004 68 158 6.1 7.8 0.00 0.00 0.00 93
20260507002709 68 151 5.2 7.8 0.00 0.00 0.00 93
20260507002413 68 192 5.2 8.7 0.00 0.00 0.00 93
20260507002106 68 202 5.2 9.6 0.00 0.00 0.00 93
20260507001810 68 188 5.2 7.8 0.00 0.00 0.00 93
20260507001513 68 159 6.1 7.8 0.00 0.00 0.00 93
20260507001206 68 181 6.1 7.0 0.00 0.00 0.00 93
20260507000912 68 200 5.2 9.6 0.00 0.00 0.00 93
20260507000605 68 191 8.7 9.6 0.00 0.00 0.00 93
20260507000306 68 148 6.1 7.0 0.00 0.00 0.00 92
20260507000010 68 161 5.2 7.8 0.00 0.00 0.00 92
20260506235412 68 154 7.0 8.7 0.00 0.00 0.00 92
20260506235106 68 205 6.1 8.7 0.00 0.00 0.00 92
20260506234812 68 200 7.8 9.6 0.00 0.00 0.00 92
20260506234505 68 168 7.8 9.6 0.00 0.00 0.00 92
20260506234210 68 196 6.1 12.2 0.00 0.00 0.00 92
20260506233903 68 204 6.1 9.6 0.00 0.00 0.00 91
20260506233606 68 201 7.8 10.4 0.00 0.00 0.00 91
20260506233312 68 169 5.2 8.7 0.00 0.00 0.00 91
20260506233007 68 201 5.2 9.6 0.00 0.00 0.00 91
20260506232712 68 217 9.6 13.0 0.00 0.00 0.00 91
20260506232406 68 188 9.6 13.0 0.00 0.00 0.00 91
20260506232110 68 166 8.7 10.4 0.00 0.00 0.00 91
20260506231804 68 172 7.8 10.4 0.00 0.00 0.00 90
20260506231509 68 203 9.6 10.4 0.00 0.00 0.00 90
20260506231213 68 196 7.8 12.2 0.00 0.00 0.00 91
20260506230906 68 172 10.4 13.0 0.00 0.00 0.00 91
20260506230610 68 174 10.4 13.9 0.00 0.00 0.00 91
20260506230311 68 195 8.7 10.4 0.00 0.00 0.00 91
20260506230004 68 176 8.7 12.2 0.00 0.00 0.00 90
20260506225411 68 165 7.8 10.4 0.00 0.00 0.00 91
20260506225104 68 209 7.8 12.2 0.00 0.00 0.00 91
20260506224810 68 166 8.7 10.4 0.00 0.00 0.00 91
20260506224503 69 168 7.8 10.4 0.00 0.00 0.00 91
20260506224207 69 186 7.8 10.4 0.00 0.00 0.00 90
20260506223912 69 167 8.7 10.4 0.00 0.00 0.00 90
20260506223606 69 186 7.8 9.6 0.00 0.00 0.00 90
20260506223312 69 188 8.7 9.6 0.00 0.00 0.00 89
20260506223006 69 171 6.1 8.7 0.00 0.00 0.00 90
20260506222709 69 194 7.0 7.8 0.00 0.00 0.00 89
20260506222404 69 182 5.2 7.8 0.00 0.00 0.00 89
20260506222109 69 159 6.1 8.7 0.00 0.00 0.00 89
20260506221813 70 168 6.1 7.8 0.00 0.00 0.00 89
20260506221507 70 198 6.1 9.6 0.00 0.00 0.00 89
20260506221212 70 145 5.2 7.0 0.00 0.00 0.00 89
20260506220905 70 192 7.8 12.2 0.00 0.00 0.00 89
20260506220610 70 197 6.1 9.6 0.00 0.00 0.00 88
20260506220304 70 227 7.0 10.4 0.00 0.00 0.00 88
20260506220009 70 184 7.0 7.8 0.00 0.00 0.00 88
20260506215409 70 216 5.2 6.1 0.00 0.00 0.00 88
20260506215112 70 197 7.0 7.8 0.00 0.00 0.00 89
20260506214806 70 164 4.3 7.8 0.00 0.00 0.00 89
20260506214511 70 204 5.2 7.8 0.00 0.00 0.00 89
20260506214203 70 209 6.1 7.8 0.00 0.00 0.00 89
20260506213907 70 210 7.0 7.0 0.00 0.00 0.00 89
20260506213612 70 193 5.2 7.0 0.00 0.00 0.00 90
20260506213304 70 192 6.1 8.7 0.00 0.00 0.00 89
20260506213008 70 185 3.5 7.0 0.00 0.00 0.00 89
20260506212709 70 187 6.1 7.0 0.00 0.00 0.00 89
20260506212414 70 157 6.1 7.8 0.00 0.00 0.00 89
20260506212106 70 207 5.2 7.8 0.00 0.00 0.00 89
20260506211809 70 208 5.2 7.0 0.00 0.00 0.00 89
20260506211513 70 212 5.2 7.8 0.00 0.00 0.00 89
20260506211206 70 201 6.1 7.0 0.00 0.00 0.00 89
20260506210912 70 209 5.2 7.0 0.00 0.00 0.00 88
20260506210606 70 210 5.2 8.7 0.00 0.00 0.00 88
20260506210310 70 176 4.3 7.8 0.00 0.00 0.00 88
20260506210004 70 204 7.0 7.8 0.00 0.00 0.00 88
20260506205403 71 197 5.2 7.8 0.00 0.00 0.00 86
20260506205108 71 153 5.2 7.0 0.00 0.00 0.00 87
20260506204812 70 200 3.5 7.0 0.00 0.00 0.00 86
20260506204505 71 187 8.7 8.7 0.00 0.00 0.00 86
20260506204209 71 205 5.2 7.0 0.00 0.00 0.00 86
20260506203914 71 165 3.5 9.6 0.00 0.00 0.00 85
20260506203608 71 152 7.0 12.2 0.00 0.00 0.00 84
20260506203312 71 188 5.2 8.7 0.00 0.00 0.00 84
20260506203007 72 204 7.0 8.7 0.00 0.00 0.00 83
20260506202711 72 214 6.1 8.7 0.00 0.00 0.00 83
20260506202404 71 195 5.2 7.0 0.00 0.00 0.00 83
20260506202110 71 192 6.1 8.7 0.00 0.00 0.00 83
20260506201804 71 203 7.8 9.6 0.00 0.00 0.00 83
20260506201508 72 219 6.1 10.4 0.00 0.00 0.00 82
20260506201213 72 169 4.3 7.0 0.00 0.00 0.00 84